Starlink 30137

operational
NORAD ID: 56843 Int'l Des: 2023-079 Owner: SPXS Country: US Constellation: starlink
LEOCIRCULAR

Starlink 30137について

説明を読み込み中...

リアルタイム位置

3D地球を読み込み中...

次回通過

高度履歴

Altitude vs Time

uPlot chart will show altitude changes over time

軌道要素

1 56843U 23079W 25260.24497432 -.00000484 00000-0 -20737-4 0 9998
2 56843 43.0026 329.7395 0001016 268.7403 91.3323 15.02532289126792
Epoch: Sep 17, 2025 • Age: 24 hours

現在のステータス

高度 558.3 km
速度 7.59 km/s
衛星直下点 13.74°N, 106.52°W
打ち上げ日 Jun 4, 2023
運用期間 2.2 years
タイプ internet

技術仕様

分類 Payload
質量 730.00 kg
乾燥質量 700.00 kg
総質量 730.00 kg
長さ 0.30 m
直径 4.10 m
スパン 29.00 m
形状 Box + pan
製造者 SPXS
バスタイプ Starlink V2M
フェーズステータス In Orbit
所有者/国 SPXS/US

大規模コンステレーション

Loading constellations...